TimeCEST,TemperatureF,Dew PointF,Humidity,Sea Level PressureIn,VisibilityMPH,Wind Direction,Wind SpeedMPH,Gust SpeedMPH,PrecipitationIn,Events,Conditions,WindDirDegrees,DateUTC
12:55 AM,68.0,66.2,94,29.98,6.2,ESE,3.5,-,N/A,,Partly Cloudy,120,2012-10-07 22:55:00
1:55 AM,68.0,66.2,94,29.98,6.2,SSE,2.3,-,N/A,,Scattered Clouds,160,2012-10-07 23:55:00
2:00 AM,69,66,86,29.99,6,SSE,2.3,,,,Partly Cloudy,160,2012-10-08 00:00:00
3:55 AM,68.0,64.4,88,29.98,6.2,ENE,5.8,-,N/A,,Scattered Clouds,70,2012-10-08 01:55:00
5:00 AM,67,64,86,29.99,6,ENE,5.8,,,,Partly Cloudy,70,2012-10-08 03:00:00
5:55 AM,66.2,62.6,88,29.95,6.2,NE,4.6,-,N/A,,Partly Cloudy,40,2012-10-08 03:55:00
6:55 AM,66.2,62.6,88,29.95,6.2,East,4.6,-,N/A,,Partly Cloudy,80,2012-10-08 04:55:00
8:00 AM,67,62,80,29.96,9,East,6.9,,,,Clear,80,2012-10-08 06:00:00
8:55 AM,69.8,64.4,83,29.95,-9999.0,NE,4.6,-,N/A,,Clear,40,2012-10-08 06:55:00
9:55 AM,73.4,64.4,73,29.98,-9999.0,East,6.9,-,N/A,,Clear,100,2012-10-08 07:55:00
10:55 AM,75.2,64.4,69,29.98,6.2,ESE,6.9,-,N/A,,Partly Cloudy,120,2012-10-08 08:55:00
11:00 AM,75,64,62,29.99,16,ESE,6.9,,,,Scattered Clouds,120,2012-10-08 09:00:00
11:55 AM,75.2,64.4,69,29.98,6.2,SSE,4.6,-,N/A,,Scattered Clouds,150,2012-10-08 09:55:00
12:55 PM,75.2,66.2,73,29.98,6.2,SSE,5.8,-,N/A,,Scattered Clouds,150,2012-10-08 10:55:00
1:55 PM,77.0,66.2,69,29.98,6.2,South,10.4,-,N/A,,Partly Cloudy,180,2012-10-08 11:55:00
2:00 PM,77,67,64,29.97,16,South,10.4,,,,Partly Cloudy,180,2012-10-08 12:00:00
2:55 PM,75.2,68.0,78,29.95,6.2,South,12.7,-,N/A,,Partly Cloudy,180,2012-10-08 12:55:00
3:55 PM,75.2,68.0,78,29.95,6.2,South,10.4,-,N/A,,Partly Cloudy,190,2012-10-08 13:55:00
4:55 PM,75.2,68.0,78,29.95,-9999.0,South,9.2,-,N/A,,Clear,190,2012-10-08 14:55:00
5:00 PM,74,68,76,29.95,16,South,9.2,,,,,190,2012-10-08 15:00:00
5:55 PM,73.4,66.2,78,29.92,-9999.0,South,4.6,-,N/A,,Clear,190,2012-10-08 15:55:00
6:55 PM,69.8,64.4,83,29.92,-9999.0,South,3.5,-,N/A,,Clear,180,2012-10-08 16:55:00
8:00 PM,68,64,83,29.96,7,South,2.3,,,,Clear,190,2012-10-08 18:00:00
8:55 PM,64.4,62.6,94,29.95,-9999.0,NE,2.3,-,N/A,,Clear,50,2012-10-08 18:55:00
9:55 PM,64.4,60.8,88,29.95,-9999.0,NNE,3.5,-,N/A,,Clear,30,2012-10-08 19:55:00
10:55 PM,64.4,60.8,88,29.95,-9999.0,NNE,4.6,-,N/A,,Clear,30,2012-10-08 20:55:00
11:00 PM,64,61,85,29.96,7,NNE,4.6,,,,,30,2012-10-08 21:00:00
11:55 PM,62.6,59.0,88,29.95,-9999.0,NNE,4.6,-,N/A,,Clear,30,2012-10-08 21:55:00